Flag for Canada Weather past 2 weeks in Steinbach, Manitoba, Canada

Now
74 °F

Mild.


Feels Like: 77 °F
Forecast: N/A
Wind: 2 mph from Southwest

Location: Winnipeg The Forks

Current Time: Jul 23, 2014 at 6:07:56 PM

Latest Report: Jul 23, 2014 at 5:00 PM


Visibility: N/A

Pressure: 30.24 "Hg

Humidity: 40%

Dew point: 48 °F

Location of SteinbachLocation

Historic Weather in Steinbach — Graph

°F

Steinbach temperature yesterday

Maximum temperature yesterday: 76 °F (at 6:00 PM)
Minimum temperature yesterday: 60 °F (at 6:00 AM)
Average temperature yesterday: 66 °F

Past Weeks' High & Low Weather Summary

 TemperatureHumidityPressure
High88 °F (Jul 20, 3:00 PM)95% (Jul 15, 5:00 AM)30.33 "Hg (Jul 15, 5:00 AM)
Low49 °F (Jul 14, 3:00 AM)33% (Jul 11, 2:00 PM)29.49 "Hg (Jul 20, 2:00 PM)
Average68 °F63%29.90 "Hg
* Reported Jul 8 5:00 PM — Jul 23 5:00 PM, Steinbach, Weather by CustomWeather, © 2014

Note: Actual official high and low records may vary slightly from our data, if they occured in-between our weather recording intervals... More about our weather records

Advertising

Steinbach weather history for previous 24 hours

 ConditionsComfort  
Time TempWeatherWind HumidityBarometerVisibility
5:00 PM
Jul 23
74 °FMild.2 mph40%30.24 "HgN/A
4:00 PM73 °FMild.2 mph42%30.26 "HgN/A
3:00 PM72 °FMild.2 mph45%30.28 "HgN/A
2:00 PM70 °FMild.5 mph47%30.29 "HgN/A
1:00 PM71 °FMild.5 mph47%30.30 "HgN/A
12:00 PM70 °FMild.2 mph50%30.32 "HgN/A
11:00 AM68 °FMild.3 mph51%30.32 "HgN/A
10:00 AM67 °FMild.2 mph61%30.33 "HgN/A
9:00 AM64 °FMild.1 mph73%30.33 "HgN/A
8:00 AM60 °FCool.1 mph84%30.32 "HgN/A
7:00 AM57 °FCool.1 mph87%30.32 "HgN/A
6:00 AM56 °FCool.2 mph89%30.30 "HgN/A
5:00 AM56 °FCool.3 mph86%30.29 "HgN/A
4:00 AM57 °FCool.3 mph82%30.29 "HgN/A
3:00 AM58 °FCool.3 mph79%30.29 "HgN/A
2:00 AM59 °FCool.3 mph77%30.28 "HgN/A
12:00 AM62 °FCool.5 mph71%30.26 "HgN/A
11:00 PM
Jul 22
64 °FMild.5 mph73%30.24 "HgN/A
10:00 PM66 °FMild.5 mph69%30.23 "HgN/A
9:00 PM68 °FMild.6 mph63%30.21 "HgN/A
8:00 PM69 °FMild.5 mph64%30.19 "HgN/A
6:00 PM76 °FMild.9 mph39%30.16 "HgN/A
Weather by CustomWeather, © 2014

See weather overviewHow to use our weather pages